DW2465 Weather Reports


Display with metric or nautical units.
time (UTC)temp
F
wind
direction
speed
MPH
gust
MPH
rain 1hr
in
rain 24hr
in
rain mn
in
humidity
%
barometer
mb
20260507081536 34 296 0.0 0.0 0.00 0.00 0.00 72 1013.5
20260507080027 34 296 0.0 0.0 0.00 0.00 0.00 71 1013.6
20260507074526 34 296 0.0 0.0 0.00 0.00 0.00 71 1013.8
20260507073024 34 296 0.0 0.0 0.00 0.00 0.00 72 1013.8
20260507071552 35 296 0.0 0.0 0.00 0.00 0.00 71 1014.0
20260507070057 35 296 0.0 0.0 0.00 0.00 0.00 69 1014.2
20260507064551 36 296 0.0 0.0 0.00 0.00 0.00 68 1014.2
20260507063043 36 296 0.0 0.0 0.00 0.00 0.00 68 1014.4
20260507061541 36 296 0.0 0.0 0.00 0.00 0.00 66 1014.5
20260507060039 36 296 0.0 0.0 0.00 0.00 0.00 68 1014.6
20260507054535 37 296 0.0 0.0 0.00 0.00 0.00 66 1014.6
20260507053034 37 296 0.0 0.0 0.00 0.00 0.00 64 1014.8
20260507051531 37 296 0.0 0.0 0.00 0.00 0.00 68 1014.8
20260507050031 38 296 0.0 0.0 0.00 0.00 0.00 65 1014.9
20260507044528 39 296 0.0 0.0 0.00 0.00 0.00 64 1014.9
20260507043027 39 296 0.0 0.0 0.00 0.00 0.00 64 1014.8
20260507041527 39 296 0.0 0.0 0.00 0.00 0.00 59 1015.0
20260507040026 39 296 0.0 0.0 0.00 0.00 0.00 60 1015.1
20260507034602 39 296 0.0 0.0 0.00 0.00 0.00 60 1015.3
20260507033107 39 296 0.0 0.0 0.00 0.00 0.00 59 1015.2
20260507031600 39 296 0.0 0.0 0.00 0.00 0.00 59 1015.2
20260507030107 40 296 0.0 0.0 0.00 0.00 0.00 57 1015.3
20260507024607 40 296 0.0 0.0 0.00 0.00 0.00 55 1015.3
20260507023051 40 296 0.0 0.0 0.00 0.00 0.00 54 1015.3
20260507021555 40 296 0.0 0.0 0.00 0.00 0.00 53 1015.4
20260507020057 40 296 0.0 0.0 0.00 0.00 0.00 53 1015.5
20260507014556 41 296 0.0 0.0 0.00 0.00 0.00 52 1015.4
20260507013053 41 296 0.0 0.0 0.00 0.00 0.00 51 1015.3
20260507011528 42 296 0.0 0.0 0.00 0.00 0.00 50 1015.4
20260507010020 43 296 0.0 0.0 0.00 0.00 0.00 49 1015.5
20260507004514 43 270 0.0 0.0 0.00 0.00 0.00 47 1015.5
20260507003014 44 256 0.0 0.0 0.00 0.00 0.00 47 1015.4
20260507001519 44 290 0.0 0.0 0.00 0.00 0.00 46 1015.4
20260507000013 44 248 0.0 0.0 0.00 0.00 0.00 46 1015.6
20260506234510 44 248 0.0 0.0 0.00 0.00 0.00 50 1015.7
20260506233010 44 237 0.0 0.0 0.00 0.00 0.00 49 1016.0
20260506231510 44 265 0.0 0.0 0.00 0.00 0.00 49 1015.9
20260506230009 44 288 0.0 0.0 0.00 0.00 0.00 48 1015.8
20260506224508 44 288 0.0 0.0 0.00 0.00 0.00 48 1015.8
20260506223037 44 289 0.0 0.0 0.00 0.00 0.00 48 1015.7
20260506221536 44 266 0.0 0.0 0.00 0.00 0.00 48 1015.9
20260506220033 43 256 0.0 0.0 0.00 0.00 0.00 48 1016.0
20260506214533 44 296 0.0 0.0 0.00 0.00 0.00 49 1016.0
20260506213035 43 240 0.0 0.0 0.00 0.00 0.00 49 1016.1
20260506211531 43 290 0.0 0.0 0.00 0.00 0.00 50 1016.3
20260506210005 43 215 0.0 0.0 0.00 0.00 0.00 50 1016.4
20260506204600 43 266 0.0 0.0 0.00 0.00 0.00 50 1016.4
20260506203053 42 279 0.0 0.0 0.00 0.00 0.00 51 1016.6
20260506201556 42 269 0.0 0.0 0.00 0.00 0.00 51 1016.5
20260506200051 42 228 0.0 0.0 0.00 0.00 0.00 53 1016.7
20260506194551 41 232 0.0 0.0 0.00 0.00 0.00 52 1016.6
20260506193048 41 259 0.0 0.0 0.00 0.00 0.00 53 1016.7
20260506191547 41 271 0.0 0.0 0.00 0.00 0.00 54 1016.8
20260506190044 40 300 0.0 0.0 0.00 0.00 0.00 55 1016.9
20260506184549 40 240 0.0 0.0 0.00 0.00 0.00 56 1016.9
20260506183040 40 259 0.0 0.0 0.00 0.00 0.00 55 1016.9
20260506181540 40 309 0.0 0.0 0.00 0.00 0.00 55 1016.9
20260506180040 40 244 0.0 0.0 0.00 0.00 0.00 55 1017.1
20260506174538 40 290 0.0 0.0 0.00 0.00 0.00 54 1017.1
20260506173016 40 244 0.0 0.0 0.00 0.00 0.00 54 1017.0
20260506171508 40 360 0.0 0.0 0.00 0.00 0.00 54 1017.1
20260506170004 40 316 0.0 0.0 0.00 0.00 0.00 56 1017.3
20260506164501 39 360 0.0 0.0 0.00 0.00 0.00 55 1017.5
20260506163107 39 290 0.0 0.0 0.00 0.00 0.00 56 1017.4
20260506161639 38 316 0.0 0.0 0.00 0.00 0.00 57 1017.4
20260506160026 38 260 0.0 0.0 0.00 0.00 0.00 57 1017.3
20260506154524 38 269 0.0 0.0 0.00 0.00 0.00 58 1017.3
20260506153057 38 317 0.0 0.0 0.00 0.00 0.00 58 1017.2
20260506151552 37 319 0.0 0.0 0.00 0.00 0.00 58 1017.1
20260506150049 37 328 0.0 0.0 0.00 0.00 0.00 59 1017.1
20260506144548 37 283 0.0 0.0 0.00 0.00 0.00 59 1017.1
20260506143047 37 312 0.0 0.0 0.00 0.00 0.00 59 1017.2
20260506141547 37 360 0.0 0.0 0.00 0.00 0.00 60 1017.2
20260506140043 37 278 0.0 0.0 0.00 0.00 0.00 61 1017.1
20260506134541 36 306 0.0 0.0 0.00 0.00 0.00 62 1017.0
20260506133041 36 304 0.0 0.0 0.00 0.00 0.00 62 1016.9
20260506131548 36 306 0.0 0.0 0.00 0.00 0.00 64 1016.7
20260506130053 36 294 0.0 0.0 0.00 0.00 0.00 64 1016.7
20260506124535 35 306 0.0 0.0 0.00 0.00 0.00 65 1016.5
20260506123034 35 273 0.0 0.0 0.00 0.00 0.00 66 1016.3
20260506121534 34 301 0.0 0.0 0.00 0.00 0.00 68 1016.1
20260506120032 34 286 0.0 0.0 0.00 0.00 0.00 70 1015.7
20260506114533 33 325 0.0 0.0 0.00 0.00 0.00 72 1015.6
20260506113028 33 301 0.0 0.0 0.00 0.00 0.00 73 1015.3
20260506111527 33 294 0.0 0.0 0.00 0.00 0.00 73 1015.3
20260506110027 33 284 0.0 0.0 0.00 0.00 0.00 74 1015.5
20260506104527 32 277 0.0 0.0 0.00 0.00 0.00 75 1015.6
20260506103025 32 265 0.0 0.0 0.00 0.00 0.00 75 1015.5
20260506101533 32 271 0.0 0.0 0.00 0.00 0.00 74 1015.0
20260506100017 32 275 0.0 0.0 0.00 0.00 0.00 73 1014.9
20260506094522 32 272 0.0 0.0 0.00 0.00 0.00 73 1014.9
20260506093020 32 261 0.0 0.0 0.00 0.00 0.00 73 1015.0
20260506091516 32 263 0.0 0.0 0.00 0.00 0.00 73 1015.0
20260506090012 32 290 0.0 0.0 0.00 0.00 0.00 72 1014.9
20260506084510 33 292 0.0 0.0 0.00 0.00 0.00 71 1014.8
20260506083006 33 292 0.0 0.0 0.00 0.00 0.00 70 1014.6